[[{"header":{"parameterUnit":"m.s-1","parameterCategory":1,"la1":30.2991,"la2":30.254,"lo1":-89.0895,"lo2":-89.0444,"dy":0.0017,"dx":0.0017,"nx":28,"ny":28,"refTime":"2025-09-09T03:00:00:Z","depth":0,"parameterNumber":2,"parameterNumberName":"U-component_of_WINDS"},"data":[0,0,0,0,0,0,0,0,0,0,0,0,0,0,0,0,0,0,0,0,0,0,0,0,0,0,0,0,0,0,0,0,0,0,0,0,0,0,0,0,0,0,0,0,0,0,0,0,0,0,0,0,0,0,0,0,0,0,-1.6825,-1.6825,0,-1.6778,-1.6777,-1.6777,-1.6648,-1.6645,-1.6642,-1.6639,-1.6597,-1.6598,-1.66,0,0,0,0,0,0,0,0,0,0,0,0,0,-1.681,-1.6811,-1.6825,-1.6825,-1.6824,-1.6778,-1.6777,-1.6777,-1.6648,-1.6645,-1.6641,-1.6638,-1.6596,-1.6598,-1.66,0,0,0,0,0,0,0,0,0,0,0,0,0,-1.6796,-1.6811,-1.6825,-1.6754,-1.6747,-1.6778,-1.6777,-1.6777,-1.6649,-1.6645,-1.664,-1.6636,-1.6596,-1.6598,-1.66,-1.6698,0,0,-1.6607,-1.6608,0,0,0,0,0,0,0,0,-1.6797,-1.6796,-1.6765,-1.6759,-1.6751,-1.6714,-1.6756,-1.675,-1.665,-1.6686,-1.6639,-1.6634,-1.664,-1.6638,-1.6639,-1.6696,-1.6694,-1.6607,-1.6608,-1.6609,-1.661,0,0,0,0,0,0,0,-1.6798,-1.6798,-1.6807,-1.6765,-1.6757,-1.6727,-1.672,-1.6755,-1.6687,-1.6683,-1.6673,-1.6669,-1.6635,-1.6637,-1.6637,-1.6693,-1.6607,-1.6609,-1.661,-1.6611,-1.6831,-1.6835,0,0,0,0,0,0,-1.6808,-1.6799,-1.6808,-1.6805,-1.6764,-1.673,-1.6723,-1.6731,-1.6687,-1.6676,-1.6673,-1.6663,-1.6635,-1.6634,-1.6635,-1.6747,-1.6609,-1.6611,-1.6613,-1.6827,-1.6832,-1.6837,0,0,0,0,0,0,-1.6808,-1.681,-1.681,-1.68,-1.6797,-1.6735,-1.6745,-1.6732,-1.6733,-1.6679,-1.6667,-1.6686,-1.6632,-1.6632,-1.6683,-1.6744,-1.6612,-1.6614,-1.6821,-1.6828,-1.6834,-1.6973,0,0,0,0,0,0,-1.6808,-1.6811,-1.6846,-1.6801,-1.6798,-1.6858,-1.6748,-1.6734,-1.6737,-1.6724,-1.6688,-1.6679,-1.6628,-1.6681,-1.6685,-1.6745,-1.6616,-1.6815,-1.6824,-1.6832,-1.6963,-1.6984,-1.7002,0,0,0,0,0,-1.6808,-1.6888,-1.6848,-1.685,-1.684,-1.6861,-1.686,-1.6799,-1.6742,-1.6778,-1.6743,-1.668,-1.6737,-1.6687,-1.6691,-1.6752,-1.6811,-1.6822,-1.6832,-1.6954,-1.698,-1.7001,0,0,0,0,0,0,-1.6942,-1.688,-1.6836,-1.6903,-1.6888,-1.6839,-1.6882,-1.6827,-1.683,-1.6818,-1.6744,-1.6737,-1.68,-1.6781,-1.6727,-1.6846,-1.6764,-1.6775,-1.6855,-1.6879,-1.6898,-1.6902,-1.6618,0,0,0,0,0,-1.698,-1.7,-1.6945,-1.701,-1.7005,-1.6945,-1.6952,-1.6906,-1.6889,-1.6883,-1.6852,-1.6839,-1.6854,-1.6865,-1.6876,-1.696,-1.6951,-1.7004,-1.7023,-1.704,-1.7051,-1.7095,-1.7118,-1.687,-1.687,-1.687,0,0,-1.7057,-1.7026,-1.7043,-1.7036,-1.7019,-1.7044,-1.6941,-1.6971,-1.699,-1.6888,-1.6934,-1.6912,-1.6893,-1.6961,-1.699,-1.6948,-1.7117,-1.7052,-1.7066,-1.7068,-1.7108,-1.7132,-1.7153,-1.6877,-1.6876,-1.6875,0,0,-1.7211,-1.7188,-1.724,-1.7225,-1.7201,-1.7161,-1.7174,-1.7134,-1.7114,-1.7159,-1.7084,-1.7106,-1.7133,-1.7123,-1.7122,-1.7274,-1.7216,-1.728,-1.7381,-1.7426,-1.7445,-1.7462,-1.7518,-1.7539,-1.7291,-1.7291,-1.7291,0,-1.731,-1.7343,-1.7274,-1.7309,-1.7309,-1.7217,-1.727,-1.726,-1.7242,-1.7245,-1.7197,-1.723,-1.7211,-1.7276,-1.7314,-1.7315,-1.7329,-1.7283,-1.7448,-1.7464,-1.7479,-1.7531,-1.7552,-1.7299,-1.7298,-1.7297,-1.7296,0,-1.7467,-1.7491,-1.7536,-1.7519,-1.7524,-1.7569,-1.7509,-1.7523,-1.7478,-1.7444,-1.7493,-1.7466,-1.7471,-1.7483,-1.7439,-1.7543,-1.7518,-1.746,-1.7377,-1.7512,-1.756,-1.7579,-1.731,-1.7307,-1.7305,-1.7303,0,0,-1.7703,-1.7648,-1.7666,-1.7658,-1.7625,-1.7643,-1.7685,-1.7687,-1.7701,-1.7692,-1.7727,-1.7752,-1.7699,-1.7698,-1.7652,-1.7691,-1.7816,-1.7629,-1.7627,-1.7665,-1.7931,-1.7975,-1.7999,-1.7777,-1.7781,-1.7783,-1.7933,0,-1.7849,-1.7914,-1.7855,-1.7932,-1.7955,-1.7869,-1.7905,-1.789,-1.786,-1.7877,-1.7844,-1.7864,-1.7792,-1.7791,-1.7825,-1.7793,-1.7868,-1.7781,-1.781,-1.7812,-1.7818,-1.8024,-1.807,-1.8212,-1.7951,-1.7954,-1.7956,0,-1.8027,-1.8025,-1.8105,-1.8068,-1.8075,-1.8109,-1.8108,-1.8124,-1.8106,-1.8082,-1.8082,-1.8026,-1.8066,-1.7985,-1.8041,-1.7983,-1.7992,-1.7978,-1.7982,-1.7983,-1.7893,-1.8031,-1.8256,-1.8278,-1.7985,-1.7983,-1.7981,0,-1.8193,-1.821,-1.826,-1.8256,-1.8214,-1.824,-1.8224,-1.8202,-1.8208,-1.8208,-1.8212,-1.8217,-1.8221,-1.8227,-1.8176,-1.812,-1.824,-1.8153,-1.8222,-1.8224,-1.8251,-1.8251,-1.8482,-1.8256,-1.8256,-1.8256,-1.8255,0,-1.8362,-1.8415,-1.8334,-1.8365,-1.8423,-1.8355,-1.8414,-1.839,-1.8371,-1.8398,-1.8324,-1.8351,-1.8281,-1.8302,-1.8262,-1.8316,-1.8318,-1.8301,-1.829,-1.8308,-1.831,-1.8313,-1.8302,-1.8261,-1.826,-1.8259,-1.8258,0,-1.8557,-1.8504,-1.8554,-1.851,-1.85,-1.8545,-1.8508,-1.8537,-1.8502,-1.8537,-1.8542,-1.8489,-1.8509,-1.8458,-1.8472,-1.8445,-1.8522,-1.8495,-1.8528,-1.852,-1.8593,-1.8587,-1.8834,-1.8864,-1.8619,-1.8622,-1.8624,0,-1.8668,-1.8706,-1.8667,-1.8679,-1.8666,-1.8686,-1.8692,-1.8628,-1.8637,-1.8621,-1.8652,-1.8666,-1.8674,-1.8712,-1.8676,-1.8686,-1.8659,-1.8745,-1.8661,-1.8678,-1.8662,-1.8661,-1.8665,-1.8763,-1.8766,-1.8769,-1.877,0,-1.8872,-1.8845,-1.8855,-1.8857,-1.8865,-1.8864,-1.8858,-1.8872,-1.8804,-1.8819,-1.8838,-1.8844,-1.8858,-1.8874,-1.8876,-1.8862,-1.8807,-1.8797,-1.8814,-1.8833,-1.8851,-1.8844,-1.8577,-1.8792,-1.879,-1.8788,-1.8787,-1.8786,-1.9029,-1.906,-1.9037,-1.9051,-1.904,-1.9036,-1.9061,-1.9029,-1.9044,-1.9048,-1.901,-1.9039,-1.9022,-1.902,-1.9012,-1.9035,-1.8996,-1.902,-1.9026,-1.9034,-1.9046,-1.8847,-1.9035,-1.9034,-1.9034,-1.9033,-1.9033,0,-1.923,-1.9211,-1.9225,-1.9218,-1.9231,-1.9175,-1.9166,-1.918,-1.9205,-1.9194,-1.9203,-1.9227,-1.9242,-1.9208,-1.9219,-1.9244,-1.9219,-1.9249,-1.9247,-1.9245,-1.9079,-1.9064,-1.9269,-1.9269,-1.9269,-1.9269,-1.9269,-1.9269,-1.9336,-1.9385,-1.9356,-1.94,-1.9381,-1.9406,-1.9406,-1.9404,-1.9394,-1.9423,-1.9435,-1.9412,-1.9393,-1.9402,-1.9414,-1.9404,-1.9412,-1.9452,-1.9433,-1.9279,-1.9256,-1.9234,-1.922,-1.9454,-1.9454,-1.9597,-1.9598,-1.9599]},{"header":{"parameterUnit":"m.s-1","parameterCategory":1,"la1":30.2991,"la2":30.254,"lo1":-89.0895,"lo2":-89.0444,"dy":0.0017,"dx":0.0017,"nx":28,"ny":28,"refTime":"2025-09-09T03:00:00:Z","depth":0,"parameterNumber":3,"parameterNumberName":"V-component_of_WINDS"},"data":[0,0,0,0,0,0,0,0,0,0,0,0,0,0,0,0,0,0,0,0,0,0,0,0,0,0,0,0,0,0,0,0,0,0,0,0,0,0,0,0,0,0,0,0,0,0,0,0,0,0,0,0,0,0,0,0,0,0,1.7853,1.7851,0,1.7718,1.7717,1.7715,1.7663,1.7663,1.7664,1.7664,1.7513,1.7509,1.7504,0,0,0,0,0,0,0,0,0,0,0,0,0,1.8054,1.805,1.7853,1.7851,1.7849,1.7719,1.7717,1.7715,1.7663,1.7663,1.7664,1.7664,1.7515,1.7509,1.7504,0,0,0,0,0,0,0,0,0,0,0,0,0,1.7947,1.8049,1.7853,1.7808,1.7803,1.7719,1.7717,1.7714,1.7663,1.7663,1.7664,1.7664,1.7516,1.751,1.7503,1.745,0,0,1.7483,1.748,0,0,0,0,0,0,0,0,1.7953,1.794,1.7816,1.7811,1.7805,1.7708,1.7732,1.7625,1.7662,1.7715,1.7664,1.7665,1.7577,1.7565,1.7538,1.7443,1.7437,1.7483,1.7479,1.7476,1.7474,0,0,0,0,0,0,0,1.7961,1.7945,1.7799,1.7814,1.7807,1.7791,1.7776,1.7712,1.7644,1.7711,1.7707,1.7692,1.7573,1.7545,1.7534,1.7435,1.7483,1.7477,1.7473,1.747,1.729,1.7289,0,0,0,0,0,0,1.7977,1.7952,1.7803,1.7795,1.7883,1.7787,1.7771,1.7738,1.7644,1.7631,1.7692,1.769,1.7556,1.7542,1.7529,1.7461,1.7476,1.747,1.7466,1.729,1.7289,1.7289,0,0,0,0,0,0,1.7982,1.7964,1.7809,1.7872,1.7851,1.7783,1.7747,1.7735,1.7707,1.763,1.7617,1.7676,1.7556,1.7538,1.7471,1.7455,1.7467,1.7461,1.7291,1.729,1.7289,1.7324,0,0,0,0,0,0,1.7988,1.7966,1.7948,1.7873,1.7848,1.7757,1.7746,1.7732,1.7697,1.7694,1.7611,1.7598,1.7555,1.7481,1.7465,1.7446,1.7456,1.7293,1.7291,1.7289,1.7324,1.7324,1.7324,0,0,0,0,0,1.7995,1.796,1.7947,1.793,1.7825,1.7756,1.7742,1.7696,1.7696,1.7675,1.7626,1.7601,1.746,1.7475,1.7456,1.7434,1.7293,1.7291,1.7289,1.7324,1.7324,1.7324,0,0,0,0,0,0,1.803,1.7949,1.7934,1.7875,1.7824,1.7748,1.772,1.7698,1.7642,1.7641,1.7583,1.7564,1.7502,1.7461,1.748,1.7378,1.7374,1.7369,1.7407,1.7407,1.7407,1.7417,1.745,0,0,0,0,0,1.8033,1.7988,1.7918,1.7872,1.7847,1.7789,1.7757,1.7727,1.767,1.7646,1.7592,1.7534,1.7477,1.744,1.7382,1.7319,1.7299,1.7294,1.7295,1.7295,1.729,1.7253,1.725,1.7282,1.7282,1.7282,0,0,1.8033,1.7984,1.7958,1.7878,1.7834,1.7786,1.777,1.7719,1.7682,1.7637,1.7572,1.7531,1.7461,1.7397,1.7365,1.7361,1.7277,1.7293,1.7294,1.7288,1.7251,1.7248,1.7245,1.7281,1.7281,1.7281,0,0,1.8011,1.7971,1.7928,1.7886,1.7823,1.7785,1.7775,1.7703,1.7675,1.7611,1.7576,1.7529,1.7431,1.7384,1.7347,1.731,1.7284,1.7293,1.7292,1.7257,1.7254,1.7252,1.7237,1.7233,1.7288,1.7288,1.7288,0,1.802,1.795,1.7908,1.786,1.7825,1.7788,1.7743,1.7703,1.7622,1.7597,1.7595,1.7473,1.7423,1.7347,1.7339,1.731,1.7295,1.7301,1.7259,1.7256,1.7253,1.7238,1.7233,1.729,1.729,1.729,1.7289,0,1.7963,1.7915,1.7887,1.7816,1.7778,1.7731,1.768,1.7645,1.7619,1.7581,1.7514,1.7455,1.7385,1.7365,1.7337,1.7284,1.7284,1.7271,1.7265,1.7252,1.7237,1.7231,1.7292,1.7291,1.7291,1.7291,0,0,1.7956,1.7866,1.7856,1.7824,1.7752,1.7712,1.7664,1.7601,1.7572,1.7518,1.7474,1.7394,1.7383,1.7341,1.7307,1.7276,1.725,1.7267,1.7264,1.7265,1.7187,1.7196,1.7191,1.7234,1.7233,1.7232,1.7193,0,1.7923,1.784,1.7802,1.7733,1.7687,1.7652,1.761,1.756,1.7522,1.7475,1.7432,1.7376,1.7366,1.7341,1.7309,1.7261,1.7234,1.7263,1.7189,1.7187,1.7206,1.7183,1.7192,1.7158,1.7187,1.7186,1.7185,0,1.7874,1.7825,1.7754,1.769,1.7669,1.7632,1.7571,1.7528,1.747,1.7444,1.74,1.7369,1.7313,1.7314,1.7235,1.7256,1.7223,1.7195,1.7193,1.7182,1.7184,1.7171,1.7146,1.7141,1.7176,1.7177,1.7177,0,1.7875,1.7791,1.7738,1.7711,1.7635,1.761,1.7576,1.7519,1.7484,1.743,1.7407,1.7345,1.7311,1.7263,1.7215,1.722,1.714,1.7137,1.7115,1.7116,1.7097,1.7098,1.7066,1.708,1.708,1.708,1.708,0,1.7842,1.7799,1.7738,1.7705,1.7656,1.7612,1.7562,1.7525,1.7476,1.7432,1.7397,1.7356,1.7296,1.7247,1.7208,1.7148,1.7133,1.7109,1.7099,1.7111,1.7114,1.7087,1.7087,1.7078,1.7079,1.7079,1.7079,0,1.7833,1.7792,1.7731,1.7666,1.7649,1.7615,1.7557,1.7522,1.7485,1.743,1.7415,1.7354,1.7295,1.7244,1.7163,1.7137,1.7075,1.7063,1.7096,1.709,1.7071,1.7073,1.7018,1.7008,1.7031,1.7031,1.703,0,1.7814,1.7781,1.7714,1.7685,1.7654,1.7606,1.7572,1.7527,1.7492,1.7425,1.7397,1.7337,1.7286,1.7191,1.7138,1.7076,1.7062,1.7047,1.7052,1.7066,1.706,1.7062,1.7057,1.7046,1.7046,1.7046,1.7046,0,1.7784,1.7766,1.772,1.7667,1.7628,1.7583,1.7537,1.7514,1.746,1.7422,1.7363,1.7324,1.7246,1.7184,1.7118,1.7078,1.7052,1.7046,1.7037,1.7048,1.7068,1.7056,1.7094,1.7046,1.7046,1.7046,1.7046,1.7046,1.7768,1.7737,1.7687,1.7637,1.7598,1.7557,1.7521,1.7482,1.7434,1.7369,1.7345,1.7285,1.7227,1.7136,1.7097,1.7047,1.7042,1.703,1.7026,1.7024,1.7025,1.7079,1.7034,1.7034,1.7034,1.7034,1.7034,0,1.7735,1.7701,1.7656,1.7595,1.7556,1.7541,1.7489,1.7455,1.7405,1.7356,1.7308,1.724,1.7182,1.7126,1.7063,1.7034,1.702,1.7019,1.7019,1.701,1.7033,1.7047,1.7031,1.7031,1.7031,1.7031,1.7031,1.7031,1.7713,1.7661,1.7637,1.7564,1.753,1.7475,1.7447,1.7407,1.7368,1.7296,1.7249,1.7215,1.7162,1.7096,1.7041,1.7025,1.7003,1.7004,1.6985,1.7008,1.7008,1.7009,1.7021,1.7001,1.7,1.6966,1.6966,1.6965]}]]